| time (UTC) | temp C | wind direction | speed KPH | gust KPH | rain 1hr cm | rain 24hr cm | rain mn cm | humidity % | barometer mb |
| 20260507002004 | 8 | 350 | 1.6 | 6.4 | 0.00 | 0.00 | 0.00 | 46 | 1015.2 |
| 20260507001004 | 8 | 303 | 1.6 | 4.8 | 0.00 | 0.00 | 0.00 | 44 | 1015.4 |
| 20260507000019 | 8 | 34 | 4.8 | 11.3 | 0.00 | 0.00 | 0.00 | 45 | 1015.4 |
| 20260506235002 | 8 | 355 | 6.4 | 16.1 | 0.00 | 0.00 | 0.00 | 44 | 1015.5 |
| 20260506234019 | 8 | 307 | 3.2 | 6.4 | 0.00 | 0.00 | 0.00 | 44 | 1015.6 |
| 20260506233004 | 8 | 345 | 3.2 | 8.0 | 0.00 | 0.00 | 0.00 | 45 | 1015.7 |
| 20260506232003 | 9 | 327 | 3.2 | 6.4 | 0.00 | 0.00 | 0.00 | 45 | 1015.7 |
| 20260506231004 | 9 | 314 | 4.8 | 11.3 | 0.00 | 0.00 | 0.00 | 45 | 1015.8 |
| 20260506230019 | 10 | 323 | 8.0 | 14.5 | 0.00 | 0.00 | 0.00 | 44 | 1015.8 |
| 20260506225005 | 10 | 297 | 4.8 | 14.5 | 0.00 | 0.00 | 0.00 | 43 | 1015.9 |
| 20260506224004 | 10 | 355 | 4.8 | 8.0 | 0.00 | 0.00 | 0.00 | 44 | 1015.8 |
| 20260506223005 | 10 | 300 | 1.6 | 4.8 | 0.00 | 0.00 | 0.00 | 44 | 1016.0 |
| 20260506222003 | 10 | 338 | 3.2 | 4.8 | 0.00 | 0.00 | 0.00 | 45 | 1016.1 |
| 20260506221004 | 9 | 355 | 3.2 | 6.4 | 0.00 | 0.00 | 0.00 | 44 | 1016.0 |
| 20260506220004 | 9 | 340 | 4.8 | 4.8 | 0.00 | 0.00 | 0.00 | 45 | 1016.2 |
| 20260506215004 | 9 | 344 | 4.8 | 14.5 | 0.00 | 0.00 | 0.00 | 44 | 1016.2 |
| 20260506214003 | 9 | 360 | 3.2 | 0.0 | 0.00 | 0.00 | 0.00 | 45 | 1016.2 |
| 20260506213004 | 9 | 299 | 4.8 | 16.1 | 0.00 | 0.00 | 0.00 | 45 | 1016.3 |
| 20260506212004 | 9 | 292 | 4.8 | 8.0 | 0.00 | 0.00 | 0.00 | 45 | 1016.4 |
| 20260506211005 | 9 | 321 | 8.0 | 14.5 | 0.00 | 0.00 | 0.00 | 43 | 1016.5 |
| 20260506210005 | 9 | 299 | 8.0 | 17.7 | 0.00 | 0.00 | 0.00 | 43 | 1016.5 |
| 20260506205003 | 8 | 289 | 8.0 | 19.3 | 0.00 | 0.00 | 0.00 | 44 | 1016.8 |
| 20260506204003 | 8 | 354 | 1.6 | 6.4 | 0.00 | 0.00 | 0.00 | 48 | 1017.0 |
| 20260506203004 | 8 | 313 | 1.6 | 6.4 | 0.00 | 0.00 | 0.00 | 48 | 1016.9 |
| 20260506202018 | 8 | 324 | 6.4 | 16.1 | 0.00 | 0.00 | 0.00 | 47 | 1017.0 |
| 20260506201004 | 8 | 298 | 1.6 | 6.4 | 0.00 | 0.00 | 0.00 | 46 | 1017.1 |
| 20260506200004 | 8 | 301 | 4.8 | 8.0 | 0.00 | 0.00 | 0.00 | 47 | 1017.1 |
| 20260506195003 | 8 | 327 | 3.2 | 4.8 | 0.00 | 0.00 | 0.00 | 48 | 1017.2 |
| 20260506194003 | 7 | 314 | 4.8 | 6.4 | 0.00 | 0.00 | 0.00 | 48 | 1017.3 |
| 20260506193004 | 7 | 267 | 3.2 | 4.8 | 0.00 | 0.00 | 0.00 | 48 | 1017.3 |
| 20260506192004 | 7 | 257 | 1.6 | 4.8 | 0.00 | 0.00 | 0.00 | 49 | 1017.3 |
| 20260506191004 | 7 | 307 | 1.6 | 8.0 | 0.00 | 0.00 | 0.00 | 50 | 1017.4 |
| 20260506190004 | 7 | 273 | 4.8 | 4.8 | 0.00 | 0.00 | 0.00 | 50 | 1017.5 |
| 20260506185018 | 7 | 278 | 3.2 | 4.8 | 0.00 | 0.00 | 0.00 | 51 | 1017.7 |
| 20260506184004 | 7 | 347 | 6.4 | 9.7 | 0.00 | 0.00 | 0.00 | 50 | 1017.6 |
| 20260506183005 | 7 | 19 | 4.8 | 6.4 | 0.00 | 0.00 | 0.00 | 51 | 1017.8 |
| 20260506182004 | 7 | 353 | 4.8 | 9.7 | 0.00 | 0.00 | 0.00 | 54 | 1017.8 |
| 20260506181004 | 6 | 354 | 4.8 | 9.7 | 0.00 | 0.00 | 0.00 | 53 | 1017.8 |
| 20260506180005 | 6 | 4 | 4.8 | 14.5 | 0.00 | 0.00 | 0.00 | 53 | 1017.9 |
| 20260506175004 | 6 | 295 | 6.4 | 14.5 | 0.00 | 0.00 | 0.00 | 52 | 1018.0 |
| 20260506174004 | 6 | 312 | 3.2 | 6.4 | 0.00 | 0.00 | 0.00 | 52 | 1018.1 |
| 20260506173004 | 6 | 304 | 4.8 | 17.7 | 0.00 | 0.00 | 0.00 | 53 | 1018.2 |
| 20260506172003 | 5 | 323 | 6.4 | 12.9 | 0.00 | 0.00 | 0.00 | 53 | 1018.2 |
| 20260506171004 | 5 | 313 | 9.7 | 14.5 | 0.00 | 0.00 | 0.00 | 53 | 1018.2 |
| 20260506170004 | 5 | 348 | 8.0 | 17.7 | 0.00 | 0.00 | 0.00 | 53 | 1018.3 |
| 20260506165003 | 5 | 293 | 4.8 | 9.7 | 0.00 | 0.00 | 0.00 | 53 | 1018.3 |
| 20260506164004 | 5 | 328 | 3.2 | 1.6 | 0.00 | 0.00 | 0.00 | 53 | 1018.2 |
| 20260506163002 | 5 | 6 | 1.6 | 4.8 | 0.00 | 0.00 | 0.00 | 55 | 1018.3 |
| 20260506162018 | 5 | 360 | 11.3 | 17.7 | 0.00 | 0.00 | 0.00 | 53 | 1018.3 |
| 20260506161004 | 5 | 334 | 4.8 | 8.0 | 0.00 | 0.00 | 0.00 | 56 | 1018.4 |
| 20260506160005 | 5 | 282 | 4.8 | 11.3 | 0.00 | 0.00 | 0.00 | 57 | 1018.3 |
| 20260506155004 | 5 | 357 | 3.2 | 8.0 | 0.00 | 0.00 | 0.00 | 57 | 1018.3 |
| 20260506154003 | 5 | 325 | 4.8 | 12.9 | 0.00 | 0.00 | 0.00 | 58 | 1018.3 |
| 20260506153004 | 4 | 306 | 4.8 | 14.5 | 0.00 | 0.00 | 0.00 | 58 | 1018.2 |
| 20260506152002 | 4 | 303 | 1.6 | 3.2 | 0.00 | 0.00 | 0.00 | 59 | 1018.2 |
| 20260506151003 | 4 | 344 | 6.4 | 16.1 | 0.00 | 0.00 | 0.00 | 58 | 1018.2 |
| 20260506150003 | 4 | 353 | 3.2 | 6.4 | 0.00 | 0.00 | 0.00 | 60 | 1018.2 |
| 20260506145004 | 4 | 7 | 6.4 | 6.4 | 0.00 | 0.00 | 0.00 | 60 | 1018.1 |
| 20260506144004 | 4 | 317 | 0.0 | 4.8 | 0.00 | 0.00 | 0.00 | 62 | 1018.2 |
| 20260506143003 | 3 | 334 | 3.2 | 14.5 | 0.00 | 0.00 | 0.00 | 62 | 1018.2 |
| 20260506142004 | 3 | 343 | 1.6 | 4.8 | 0.00 | 0.00 | 0.00 | 63 | 1018.2 |
| 20260506141003 | 3 | 315 | 1.6 | 1.6 | 0.00 | 0.00 | 0.00 | 63 | 1018.1 |
| 20260506140004 | 3 | 282 | 1.6 | 3.2 | 0.00 | 0.00 | 0.00 | 67 | 1018.1 |
| 20260506135002 | 3 | 296 | 0.0 | 0.0 | 0.00 | 0.00 | 0.00 | 69 | 1018.0 |
| 20260506134003 | 3 | 297 | 1.6 | 4.8 | 0.00 | 0.00 | 0.00 | 70 | 1018.0 |
| 20260506133004 | 3 | 323 | 0.0 | 0.0 | 0.00 | 0.00 | 0.00 | 71 | 1017.9 |
| 20260506132003 | 3 | 323 | 0.0 | 0.0 | 0.00 | 0.00 | 0.00 | 71 | 1017.8 |
| 20260506131004 | 3 | 345 | 0.0 | 0.0 | 0.00 | 0.00 | 0.00 | 71 | 1017.8 |
| 20260506130004 | 3 | 345 | 0.0 | 0.0 | 0.00 | 0.00 | 0.00 | 71 | 1017.7 |
| 20260506125003 | 3 | 345 | 0.0 | 0.0 | 0.00 | 0.00 | 0.00 | 70 | 1017.6 |
| 20260506124004 | 2 | 345 | 0.0 | 0.0 | 0.00 | 0.00 | 0.00 | 72 | 1017.5 |
| 20260506123018 | 2 | 360 | 0.0 | 0.0 | 0.00 | 0.00 | 0.00 | 72 | 1017.4 |
| 20260506122002 | 2 | 360 | 0.0 | 4.8 | 0.00 | 0.00 | 0.00 | 70 | 1017.3 |
| 20260506121003 | 2 | 360 | 0.0 | 0.0 | 0.00 | 0.00 | 0.00 | 71 | 1017.1 |
| 20260506120002 | 2 | 360 | 0.0 | 0.0 | 0.00 | 0.00 | 0.00 | 70 | 1017.0 |
| 20260506115003 | 2 | 360 | 0.0 | 0.0 | 0.00 | 0.00 | 0.00 | 70 | 1016.9 |
| 20260506114002 | 2 | 360 | 0.0 | 0.0 | 0.00 | 0.00 | 0.00 | 70 | 1016.7 |
| 20260506113003 | 2 | 360 | 0.0 | 0.0 | 0.00 | 0.00 | 0.00 | 70 | 1016.4 |
| 20260506112004 | 2 | 360 | 0.0 | 0.0 | 0.00 | 0.00 | 0.00 | 70 | 1016.5 |
| 20260506111002 | 2 | 360 | 0.0 | 0.0 | 0.00 | 0.00 | 0.00 | 70 | 1016.3 |
| 20260506110003 | 2 | 360 | 0.0 | 1.6 | 0.00 | 0.00 | 0.00 | 70 | 1016.3 |
| 20260506105004 | 2 | 340 | 0.0 | 0.0 | 0.00 | 0.00 | 0.00 | 70 | 1016.2 |
| 20260506104003 | 2 | 340 | 0.0 | 1.6 | 0.00 | 0.00 | 0.00 | 70 | 1016.2 |
| 20260506103004 | 2 | 340 | 0.0 | 0.0 | 0.00 | 0.00 | 0.00 | 70 | 1016.2 |
| 20260506102003 | 2 | 340 | 0.0 | 0.0 | 0.00 | 0.00 | 0.00 | 70 | 1016.3 |
| 20260506101004 | 2 | 340 | 0.0 | 0.0 | 0.00 | 0.00 | 0.00 | 69 | 1016.3 |
| 20260506100003 | 2 | 340 | 0.0 | 0.0 | 0.00 | 0.00 | 0.00 | 70 | 1016.3 |
| 20260506095005 | 2 | 340 | 0.0 | 3.2 | 0.00 | 0.00 | 0.00 | 70 | 1016.3 |
| 20260506094003 | 2 | 340 | 0.0 | 3.2 | 0.00 | 0.00 | 0.00 | 71 | 1016.3 |
| 20260506093004 | 2 | 340 | 0.0 | 0.0 | 0.00 | 0.00 | 0.00 | 71 | 1016.1 |
| 20260506092003 | 2 | 342 | 0.0 | 4.8 | 0.00 | 0.00 | 0.00 | 71 | 1016.1 |
| 20260506091005 | 2 | 294 | 0.0 | 1.6 | 0.00 | 0.00 | 0.00 | 71 | 1015.9 |
| 20260506090003 | 2 | 294 | 0.0 | 0.0 | 0.00 | 0.00 | 0.00 | 71 | 1015.9 |
| 20260506085005 | 2 | 294 | 0.0 | 0.0 | 0.00 | 0.00 | 0.00 | 71 | 1015.9 |
| 20260506084004 | 2 | 294 | 1.6 | 0.0 | 0.00 | 0.00 | 0.00 | 70 | 1016.0 |
| 20260506083004 | 2 | 294 | 0.0 | 0.0 | 0.00 | 0.00 | 0.00 | 69 | 1015.9 |
| 20260506082003 | 2 | 294 | 1.6 | 4.8 | 0.00 | 0.00 | 0.00 | 69 | 1015.9 |
| 20260506081004 | 1 | 342 | 0.0 | 0.0 | 0.00 | 0.00 | 0.00 | 68 | 1015.8 |
| 20260506073004 | 1 | 342 | 1.6 | 3.2 | 0.00 | 0.00 | 0.00 | 68 | 1015.7 |
| 20260506072003 | 1 | 342 | 0.0 | 1.6 | 0.00 | 0.00 | 0.00 | 67 | 1015.8 |
| 20260506071004 | 2 | 342 | 0.0 | 0.0 | 0.00 | 0.00 | 0.00 | 66 | 1016.0 |
| 20260506062019 | 2 | 342 | 0.0 | 0.0 | 0.00 | 0.00 | 0.00 | 63 | 1015.7 |
| 20260506061004 | 2 | 342 | 0.0 | 0.0 | 0.00 | 0.00 | 0.00 | 63 | 1015.7 |
| 20260506051004 | 3 | 345 | 3.2 | 4.8 | 0.00 | 0.00 | 0.00 | 59 | 1015.7 |
| 20260506045004 | 3 | 355 | 1.6 | 4.8 | 0.00 | 0.00 | 0.00 | 59 | 1015.5 |
| 20260506044004 | 3 | 355 | 0.0 | 3.2 | 0.00 | 0.00 | 0.00 | 59 | 1015.6 |
| 20260506043003 | 3 | 355 | 0.0 | 1.6 | 0.00 | 0.00 | 0.00 | 58 | 1015.5 |
| 20260506042018 | 4 | 355 | 1.6 | 1.6 | 0.00 | 0.00 | 0.00 | 57 | 1015.5 |
| 20260506041004 | 4 | 355 | 0.0 | 3.2 | 0.00 | 0.00 | 0.00 | 56 | 1015.5 |
| 20260506040003 | 4 | 5 | 1.6 | 6.4 | 0.00 | 0.00 | 0.00 | 56 | 1015.4 |
| 20260506035004 | 4 | 351 | 1.6 | 0.0 | 0.00 | 0.00 | 0.00 | 56 | 1015.4 |
| 20260506034004 | 4 | 340 | 1.6 | 4.8 | 0.00 | 0.00 | 0.00 | 56 | 1015.3 |
| 20260506033005 | 4 | 320 | 3.2 | 6.4 | 0.00 | 0.00 | 0.00 | 55 | 1015.2 |
| 20260506032002 | 4 | 337 | 1.6 | 6.4 | 0.00 | 0.00 | 0.00 | 55 | 1015.1 |
| 20260506031004 | 4 | 337 | 0.0 | 1.6 | 0.00 | 0.00 | 0.00 | 55 | 1015.0 |
| 20260506030004 | 5 | 333 | 0.0 | 3.2 | 0.00 | 0.00 | 0.00 | 54 | 1015.0 |
| 20260506025004 | 5 | 355 | 3.2 | 6.4 | 0.00 | 0.00 | 0.00 | 53 | 1014.9 |
| 20260506024003 | 5 | 355 | 1.6 | 6.4 | 0.00 | 0.00 | 0.00 | 53 | 1014.7 |
| 20260506023004 | 5 | 355 | 0.0 | 1.6 | 0.00 | 0.00 | 0.00 | 53 | 1014.6 |
| 20260506022004 | 5 | 355 | 4.8 | 4.8 | 0.00 | 0.00 | 0.00 | 52 | 1014.5 |
| 20260506021004 | 5 | 355 | 0.0 | 1.6 | 0.00 | 0.00 | 0.00 | 52 | 1014.3 |
| 20260506020002 | 5 | 5 | 3.2 | 4.8 | 0.00 | 0.00 | 0.00 | 51 | 1014.2 |
| 20260506015004 | 6 | 347 | 4.8 | 6.4 | 0.00 | 0.00 | 0.00 | 50 | 1014.1 |
| 20260506014003 | 6 | 5 | 4.8 | 6.4 | 0.00 | 0.00 | 0.00 | 50 | 1014.1 |
| 20260506013003 | 6 | 28 | 3.2 | 9.7 | 0.00 | 0.00 | 0.00 | 49 | 1013.9 |
| 20260506012003 | 6 | 26 | 1.6 | 4.8 | 0.00 | 0.00 | 0.00 | 49 | 1013.6 |
| 20260506011004 | 6 | 316 | 8.0 | 6.4 | 0.00 | 0.00 | 0.00 | 48 | 1013.7 |
| 20260506010004 | 7 | 22 | 4.8 | 8.0 | 0.00 | 0.00 | 0.00 | 48 | 1013.8 |
| 20260506005004 | 7 | 348 | 9.7 | 17.7 | 0.00 | 0.00 | 0.00 | 48 | 1013.7 |
| 20260506004003 | 7 | 331 | 4.8 | 6.4 | 0.00 | 0.00 | 0.00 | 48 | 1013.6 |
| 20260506003004 | 7 | 346 | 3.2 | 8.0 | 0.00 | 0.00 | 0.00 | 48 | 1013.4 |